User: anonymous   Login
Location: Newark
(36.2350°N, 59.6408°E)
Time: 12:44:25
(UTC+00:00)
Language:

ISS - Orbit

View from above orbital plane
View from above orbital plane
View from above satellite
View from above satellite

Ground track
Ground track

The orbit data is extracted from the following two-line orbital elements,

1 25544U 98067A   19340.45144066  .00016717  00000-0  10270-3 0  9048
2 25544  51.6411 227.2706 0007169   3.5153 356.6046 15.50115085  1974
Epoch (UTC): 06 December 2019 10:50:04
Eccentricity: 0.0007169
inclination: 51.6411°
perigee height: 411 km
apogee height: 421 km
right ascension of ascending node: 227.2706°
argument of perigee: 3.5153°
revolutions per day: 15.50115085
mean anomaly at epoch: 356.6046°
orbit number at epoch: 197

The dashed part of the orbit path shows where the satellite is in the earth's shadow,  

DLR